Weather in Zhuravskoye

Russia / Stavropol Krai     44°50′23″N   43°18′08″E
temp.,
°C
wind,
m/s
gust,
m/s
humid.,
%
clouds,
%
prec.,
mm/h
press.,
hPa
HPBL,
m
13 may, thu
thu1300:00+10se347377 0.0 101455
03:00+9sse22833 0.0 101412
06:00+11e11805 0.0 101449
09:00+18se23630 0.0 1014526
12:00+22ese44540 0.0 1014889
15:00+23ese45500 0.0 10141058
18:00+21ese35645 0.0 1014166
21:00+16ese33752 0.0 101519
14 may, fri
fri1400:00+14ese337940 0.0 101434
03:00+13ese1188100 0.0 101410
06:00+14ese24880 0.0 1014113
09:00+20se34660 0.0 1013433
12:00+25ese44540 0.0 1012718
15:00+27ese55490 0.0 1012909
18:00+25se34630 0.0 1011101
21:00+19e34752 0.0 101248
15 may, sat
sat1500:00+15e23680 0.0 101229
03:00+13ese006795 0.0 101211
06:00+16w227037 0.0 101331
09:00+23nw336448 0.0 1013573
12:00+27n44550 0.0 10131198
15:00+28nne34520 0.0 10121523
18:00+26ne22625 0.0 101253
21:00+21wnw1171100 0.0 101211
16 may, sun
sun1600:00+19ene2274100 0.0 101116
03:00+16ene2265100 0.0 101112
06:00+15ene22635 0.0 101189
09:00+21e345438 0.0 1010392
12:00+26e56495 0.0 1008830
15:00+28ese68390 0.0 10061336
18:00+23e6144899 0.0 1006423
21:00+18ene4135538 0.0 1007301
17 may, mon
mon1700:00+15e3865100 0.0 1006165
03:00+14e226167 0.0 100616
06:00+15ene266398 0.0 1006188
09:00+20e4556100 0.0 1006418
12:00+25e45493 0.0 1006762
15:00+28ese574171 0.0 10051307
18:00+26e1155100 0.0 100720
21:00+20n4671100 0.0 100992